This is the latest recevied weather packets stored in our database for station/object IR1CH-3. If no packets are shown the sender has not sent any weather packets the latest 1 day(s).
| Time | Temp. | Humidity | Pressure | Rain* | Wind** | Luminosity | Snow |
|---|---|---|---|---|---|---|---|
| 1778080291 | 16.67° C | 99% | 1007.4 hPa | - | - | - | - |
| 1778078491 | 16.11° C | 99% | 1007.9 hPa | - | - | - | - |
| 1778074890 | 16.11° C | 99% | 1008 hPa | - | - | - | - |
| 1778067689 | 16.11° C | 99% | 1008.5 hPa | - | - | - | - |
| 1778062288 | 16.11° C | 99% | 1008.9 hPa | - | - | - | - |
| 1778056887 | 15.56° C | 99% | 1008.9 hPa | - | - | - | - |
| 1778053286 | 15° C | 99% | 1009 hPa | - | - | - | - |
| 1778051486 | 14.44° C | 99% | 1009 hPa | - | - | - | - |
| 1778049685 | 13.89° C | 99% | 1008.9 hPa | - | - | - | - |
| 1778047885 | 15.56° C | 99% | 1008 hPa | - | - | - | - |
| 1778046085 | 16.11° C | 99% | 1007.7 hPa | - | - | - | - |
| 1778042484 | 14.44° C | 99% | 1009.4 hPa | - | - | - | - |
| 1778040684 | 13.33° C | 99% | 1009.5 hPa | - | - | - | - |
| 1778037083 | 13.33° C | 99% | 1009.7 hPa | - | - | - | - |
| 1778035283 | 13.89° C | 99% | 1009.3 hPa | - | - | - | - |
| 1778031682 | 13.89° C | 99% | 1010.5 hPa | - | - | - | - |
| 1778029882 | 13.89° C | 99% | 1010.8 hPa | - | - | - | - |
| 1778026281 | 14.44° C | 99% | 1011.8 hPa | - | - | - | - |
| 1778019080 | 14.44° C | 99% | 1012.4 hPa | - | - | - | - |
| 1778013679 | 15° C | 99% | 1012.9 hPa | - | - | - | - |
| 1778008278 | 15° C | 99% | 1012.6 hPa | - | - | - | - |
* Rain since midnight (hover to see other rain measurements)
** Current wind speed in m/s (hover to see current wind gust speed)